Back to catalog

THOR ABLESTAR DEB

AliveLEO
NORAD 416·DEBRIS·🇺🇸 United States

Launched Jun 29, 1961 from Cape Canaveral Space Force Station

Loading…

Next Passes (next 24 hours)

TLE

FreshSource: Space-Track

Epoch: Sep 14, 2026, 10:09 UTC

1 00416U 61015ER  26257.42347419  .00000101  00000-0  93414-4 0  9997
2 00416  66.4988  46.4234 0069777 114.2435 246.5965 14.14811311344477

Track THOR ABLESTAR DEB in real time with AllMySat

Download on the App Store